1515448800.23,63386,8.94,74374.8,-4.79,-10.31,-13.07,0,*54
1515448801.46,63387,8.88,74366.8,-4.81,-10.31,-12.97,0,*5A
1515448802.66,63388,8.94,74370.8,-4.79,-10.31,-13.07,0,*5A
1515448803.91,63389,8.94,74374.3,-4.81,-10.41,-13.07,0,*5B
1515448805.14,63390,8.94,74372.0,-4.79,-10.41,-13.07,0,*54
1515448806.37,63391,8.94,74374.8,-4.79,-10.41,-13.11,0,*52
1515448807.6,63392,8.94,74370.8,-4.79,-10.41,-13.11,0,*51
1515448808.79,63393,8.94,74370.3,-4.79,-10.45,-13.07,0,*53
1515448810.02,63394,8.94,74368.0,-4.81,-10.45,-13.07,0,*53
1515448811.21,63395,8.94,74370.3,-4.79,-10.45,-13.07,0,*55
1515448812.44,63396,8.94,74372.5,-4.81,-10.45,-13.11,0,*56
1515448813.67,63397,8.94,74368.0,-4.79,-10.41,-13.11,0,*54
1515448814.87,63398,8.94,74370.8,-4.79,-10.45,-13.11,0,*5F
1515448816.07,63399,8.94,74368.0,-4.79,-10.53,-13.11,0,*59
1515448817.29,63400,8.94,74368.3,-4.81,-10.53,-13.11,0,*59
1515448818.49,63401,8.94,74368.8,-4.79,-10.53,-13.11,0,*5F
1515448819.74,63402,8.94,74372.3,-4.81,-10.41,-13.11,0,*58
1515448820.97,63403,8.94,74370.3,-4.81,-10.53,-13.11,0,*5A
1515448822.17,63404,8.94,74372.3,-4.79,-10.53,-13.11,0,*5A
1515448823.4,63405,8.94,74370.3,-4.81,-10.57,-13.19,0,*50
1515448824.61,63406,8.88,74368.3,-4.79,-10.57,-13.19,0,*54
1515448825.82,63407,8.94,74370.8,-4.79,-10.57,-13.19,0,*55
1515448827.02,63408,8.94,74374.3,-4.79,-10.53,-13.11,0,*56
1515448828.22,63409,8.94,74374.0,-4.79,-10.53,-13.11,0,*57
1515448829.42,63410,8.94,74374.3,-4.79,-10.57,-13.11,0,*5B
1515448830.65,63411,8.94,74368.3,-4.81,-10.57,-13.19,0,*55
1515448831.92,63412,8.94,74370.5,-4.81,-10.67,-13.19,0,*55
1515448833.18,63413,8.94,74374.0,-4.81,-10.67,-13.11,0,*5C
1515448834.39,63414,8.94,74368.3,-4.79,-10.57,-13.11,0,*5F
1515448835.63,63415,8.94,74374.3,-4.79,-10.67,-13.19,0,*55
1515448836.86,63416,8.94,74376.3,-4.79,-10.71,-13.11,0,*59
1515448838.12,63417,8.94,74372.3,-4.81,-10.67,-13.11,0,*58
1515448839.35,63418,8.94,74372.3,-4.79,-10.67,-13.11,0,*50
1515448840.61,63419,8.94,74370.5,-4.81,-10.67,-13.11,0,*56
1515448841.88,63420,8.94,74374.3,-4.81,-10.71,-13.19,0,*53
1515448843.14,63421,8.94,74372.0,-4.81,-10.67,-13.11,0,*5D
1515448844.39,63422,8.94,74370.5,-4.81,-10.71,-13.11,0,*59
1515448845.63,63423,8.94,74372.8,-4.79,-10.67,-13.11,0,*58
1515448846.89,63424,8.94,74368.8,-4.81,-10.71,-13.11,0,*5F
1515448848.15,63425,8.94,74372.8,-4.81,-10.71,-13.19,0,*56
1515448849.38,63426,8.94,74368.0,-4.79,-10.71,-13.11,0,*5A
1515448850.64,63427,8.94,74374.3,-4.81,-10.79,-13.19,0,*5C
1515448851.89,63428,8.94,74374.0,-4.81,-10.79,-13.11,0,*5B
1515448853.15,63429,8.94,74370.5,-4.81,-10.71,-13.11,0,*52
1515448854.41,63430,8.94,74372.3,-4.81,-10.71,-13.11,0,*5A
1515448855.66,63431,8.94,74372.3,-4.81,-10.79,-13.11,0,*53
1515448856.9,63432,8.94,74372.3,-4.81,-10.85,-13.19,0,*5B
1515448858.15,63433,8.94,74374.5,-4.81,-10.79,-13.11,0,*51
1515448859.35,63434,8.94,74372.0,-4.83,-10.85,-13.15,0,*53
1515448860.58,63435,8.94,74370.5,-4.81,-10.85,-13.11,0,*54
1515448861.78,63436,8.94,74372.5,-4.83,-10.85,-13.11,0,*55
1515448863.01,63437,8.94,74370.0,-4.83,-10.75,-13.15,0,*5F
1515448864.21,63438,8.94,74372.8,-4.83,-10.85,-13.11,0,*5B
1515448865.41,63439,8.94,74368.5,-4.83,-10.89,-13.15,0,*52
1515448866.61,63440,8.94,74372.0,-4.83,-10.89,-13.15,0,*5C
1515448867.82,63441,8.94,74370.8,-4.83,-10.85,-13.23,0,*54
1515448869.02,63442,8.94,74368.5,-4.83,-10.85,-13.15,0,*52
1515448870.25,63443,8.94,74372.8,-4.83,-10.75,-13.15,0,*5C
1515448871.45,63444,8.94,74374.8,-4.83,-10.85,-13.11,0,*50
1515448872.7,63445,8.94,74370.3,-4.81,-10.79,-13.07,0,*57
1515448873.93,63446,8.94,74372.5,-4.81,-10.85,-13.07,0,*57
1515448875.15,63447,8.94,74370.8,-4.81,-10.85,-13.07,0,*56
1515448876.38,63448,8.94,74370.8,-4.81,-10.85,-13.07,0,*59
1515448877.6,63449,8.94,74370.5,-4.81,-10.89,-13.07,0,*54
1515448878.83,63450,8.94,74374.0,-4.81,-10.85,-12.97,0,*58
1515448880.04,63451,8.94,74368.8,-4.83,-10.93,-13.15,0,*57
1515448881.27,63452,8.94,74370.0,-4.85,-10.93,-13.11,0,*56
1515448882.48,63453,8.94,74370.8,-4.83,-10.93,-13.11,0,*51
1515448883.71,63454,8.94,74370.5,-4.85,-10.93,-13.11,0,*50
1515448884.94,63455,8.94,74372.8,-4.85,-10.93,-13.15,0,*55
1515448886.15,63456,8.94,74374.3,-4.83,-11.01,-13.15,0,*5A
1515448887.36,63457,8.94,74372.0,-4.83,-10.93,-13.11,0,*55
1515448888.58,63458,8.94,74376.3,-4.83,-10.93,-13.01,0,*5B
1515448889.84,63459,8.94,74372.8,-4.85,-10.93,-13.01,0,*5C
1515448891.05,63460,8.94,74372.3,-4.83,-11.01,-13.11,0,*5B
1515448892.28,63461,8.94,74370.5,-4.83,-10.93,-13.01,0,*51
1515448893.49,63462,8.94,74374.3,-4.83,-11.01,-13.11,0,*59
1515448894.7,63463,8.94,74374.3,-4.83,-11.01,-13.11,0,*58
1515448895.93,63464,8.94,74370.8,-4.83,-11.01,-13.01,0,*5E
1515448897.16,63465,8.94,74376.5,-4.83,-11.01,-13.01,0,*5F
1515448898.37,63466,8.94,74372.8,-4.83,-11.01,-13.11,0,*5D
1515448899.6,63467,8.94,74374.0,-4.83,-11.01,-13.01,0,*5D
1515448900.81,63468,8.94,74370.0,-4.83,-11.01,-13.11,0,*53
1515448902.05,63469,8.94,74370.5,-4.85,-11.01,-13.11,0,*54
1515448903.3,63470,8.94,74370.8,-4.83,-11.07,-13.01,0,*5D
1515448904.53,63471,8.94,74368.8,-4.83,-11.07,-13.11,0,*5D
1515448905.79,63472,8.94,74370.3,-4.83,-11.07,-13.01,0,*5F
1515448907.02,63473,8.94,74374.3,-4.83,-11.07,-13.11,0,*5F
1515448908.25,63474,8.94,74374.3,-4.83,-11.15,-13.01,0,*5A
1515448909.48,63475,8.94,74372.8,-4.83,-11.15,-13.01,0,*5B
1515448910.74,63476,8.94,74374.8,-4.85,-11.07,-12.97,0,*53
1515448911.97,63477,8.94,74376.0,-4.83,-11.07,-12.89,0,*5B
1515448913.18,63478,8.94,74374.5,-4.83,-11.15,-12.97,0,*58
1515448914.42,63479,8.94,74370.5,-4.83,-11.07,-12.97,0,*5A
1515448915.68,63480,8.94,74374.8,-4.85,-11.07,-12.97,0,*5A
1515448916.88,63481,8.88,74368.0,-4.83,-11.15,-12.97,0,*5E
1515448918.09,63482,8.94,74370.8,-4.83,-11.15,-12.97,0,*5D
1515448919.3,63483,8.94,74372.5,-4.83,-11.19,-12.97,0,*50
1515448920.53,63484,8.94,74370.0,-4.85,-11.15,-12.97,0,*5D
1515448921.76,63485,8.94,74374.3,-4.85,-11.15,-12.89,0,*53
1515448923.0,63486,8.94,74376.0,-4.85,-11.15,-12.97,0,*5F
1515448924.23,63487,8.94,74374.3,-4.85,-11.15,-12.97,0,*5E
1515448925.49,63488,8.94,74368.8,-4.85,-11.07,-12.97,0,*52
1515448926.73,63489,8.94,74372.0,-4.85,-11.15,-12.89,0,*5F
1515448927.99,63490,8.94,74372.8,-4.85,-11.29,-12.89,0,*58
1515448929.23,63491,8.94,74374.8,-4.85,-11.15,-12.97,0,*59
1515448930.46,63492,8.94,74372.3,-4.85,-11.19,-12.89,0,*59
1515448931.66,63493,8.94,74374.8,-4.83,-11.15,-12.89,0,*52
1515448932.92,63494,8.94,74372.3,-4.85,-11.19,-12.83,0,*55
1515448934.21,63495,8.94,74372.0,-4.85,-11.07,-12.75,0,*52
1515448935.44,63496,8.94,74370.5,-4.85,-11.19,-12.97,0,*52
1515448936.67,63497,8.94,74372.5,-4.85,-11.19,-12.89,0,*5C
1515448937.93,63498,8.94,74368.8,-4.85,-11.29,-12.89,0,*50
1515448939.19,63499,8.94,74372.8,-4.85,-11.19,-12.71,0,*55
1515448940.4,63500,8.88,74368.3,-4.87,-11.23,-12.89,0,*58
1515448941.66,63501,8.94,74368.3,-4.85,-11.19,-12.83,0,*58
1515448942.95,63502,8.88,74368.8,-4.85,-11.29,-12.75,0,*51
1515448944.24,63503,8.94,74374.8,-4.85,-11.29,-12.83,0,*59
1515448945.52,63504,8.94,74374.3,-4.85,-11.29,-12.83,0,*5E
1515448946.79,63505,8.94,74372.5,-4.83,-11.29,-12.83,0,*59
1515448948.07,63506,8.94,74372.8,-4.85,-11.29,-12.83,0,*5C
1515448949.33,63507,8.94,74372.5,-4.83,-11.29,-12.83,0,*5B
1515448950.62,63508,8.94,74368.5,-4.85,-11.29,-12.83,0,*52
1515448951.88,63509,8.94,74372.8,-4.85,-11.19,-12.75,0,*59
1515448953.11,63510,8.94,74372.8,-4.87,-11.37,-12.89,0,*5C
1515448954.34,63511,8.94,74374.8,-4.87,-11.33,-12.89,0,*59
1515448955.6,63512,8.94,74372.3,-4.87,-11.33,-12.79,0,*55
1515448956.84,63513,8.94,74374.5,-4.87,-11.33,-12.89,0,*5B
1515448958.12,63514,8.94,74372.8,-4.89,-11.33,-12.79,0,*5D
1515448959.39,63515,8.94,74374.3,-4.87,-11.33,-12.79,0,*52
1515448960.65,63516,8.94,74372.8,-4.87,-11.33,-12.79,0,*51
1515448961.93,63517,8.94,74372.5,-4.89,-11.33,-12.79,0,*5E
1515448963.2,63518,8.94,74368.8,-4.89,-11.23,-12.75,0,*5C
1515448964.46,63519,8.94,74370.8,-4.87,-11.33,-12.79,0,*5E
1515448965.74,63520,8.94,74374.5,-4.89,-11.33,-12.79,0,*5A
1515448966.98,63521,8.94,74372.8,-4.87,-11.33,-12.89,0,*5A
1515448968.24,63522,8.94,74374.3,-4.87,-11.33,-12.75,0,*5A
1515448969.5,63523,8.94,74374.8,-4.87,-11.33,-12.75,0,*5B
1515448970.76,63524,8.94,74372.3,-4.87,-11.33,-12.79,0,*50
1515448972.02,63525,8.94,74372.0,-4.87,-11.33,-12.79,0,*51
1515448973.28,63526,8.88,74368.5,-4.87,-11.33,-12.79,0,*52
1515448974.54,63527,8.94,74372.8,-4.87,-11.37,-12.75,0,*5B
1515448975.8,63528,8.94,74372.8,-4.87,-11.37,-12.75,0,*54
1515448977.08,63529,8.88,74368.5,-4.89,-11.37,-12.75,0,*5B
1515448978.32,63530,8.94,74374.0,-4.87,-11.45,-12.79,0,*54
1515448979.58,63531,8.94,74372.8,-4.87,-11.37,-12.79,0,*50
1515448980.84,63532,8.94,74374.3,-4.87,-11.37,-12.71,0,*5B
1515448982.1,63533,8.94,74368.8,-4.87,-11.37,-12.75,0,*5E
1515448983.39,63534,8.94,74372.0,-4.89,-11.37,-12.75,0,*57
1515448984.64,63535,8.94,74372.0,-4.87,-11.37,-12.79,0,*54
1515448985.91,63536,8.94,74372.5,-4.89,-11.45,-12.75,0,*50
1515448987.17,63537,8.94,74374.3,-4.87,-11.37,-12.75,0,*5A
1515448988.41,63538,8.94,74372.8,-4.87,-11.45,-12.71,0,*54
1515448989.65,63539,8.94,74374.5,-4.87,-11.51,-12.89,0,*57
1515448990.88,63540,8.94,74372.3,-4.87,-11.51,-12.89,0,*59
1515448992.15,63541,8.94,74372.8,-4.89,-11.45,-12.75,0,*50
1515448993.43,63542,8.94,74374.0,-4.89,-11.51,-12.71,0,*52
1515448994.72,63543,8.94,74372.0,-4.89,-11.51,-12.79,0,*5B
1515448995.98,63544,8.94,74370.0,-4.87,-11.51,-12.79,0,*52
1515448997.23,63545,8.94,74370.8,-4.87,-11.51,-12.79,0,*53
1515448998.47,63546,8.94,74372.5,-4.87,-11.45,-12.79,0,*55
1515448999.73,63547,8.94,74374.0,-4.87,-11.51,-12.79,0,*51
1515449000.99,63548,8.94,74370.3,-4.87,-11.51,-12.71,0,*56
1515449002.28,63549,8.94,74372.8,-4.89,-11.51,-12.75,0,*5D
1515449003.56,63550,8.94,74372.8,-4.89,-11.51,-12.75,0,*55
1515449004.82,63551,8.88,74370.5,-4.91,-11.63,-12.83,0,*55
1515449006.09,63552,8.94,74370.3,-4.91,-11.63,-12.79,0,*53
1515449007.35,63553,8.94,74374.8,-4.91,-11.67,-12.79,0,*56
1515449008.63,63554,8.94,74370.8,-4.89,-11.59,-12.75,0,*59
1515449009.93,63555,8.94,74370.5,-4.89,-11.59,-12.71,0,*5C
1515449011.22,63556,8.88,74368.5,-4.89,-11.51,-12.71,0,*57
1515449012.5,63557,8.94,74372.8,-4.89,-11.51,-12.75,0,*52
1515449013.79,63558,8.94,74370.8,-4.89,-11.51,-12.71,0,*59
1515449015.08,63559,8.94,74370.3,-4.89,-11.51,-12.71,0,*58
1515449016.37,63560,8.94,74372.0,-4.89,-11.59,-12.79,0,*52
1515449017.65,63561,8.94,74372.0,-4.89,-11.59,-12.75,0,*5F
1515449018.95,63562,8.88,74368.0,-4.89,-11.59,-12.71,0,*58
1515449020.24,63563,8.94,74372.8,-4.89,-11.63,-12.71,0,*50
1515449021.53,63564,8.94,74370.8,-4.89,-11.63,-12.71,0,*57
1515449022.82,63565,8.94,74372.8,-4.89,-11.63,-12.75,0,*52
1515449024.11,63566,8.88,74368.0,-4.89,-11.73,-12.75,0,*50
1515449025.36,63567,8.94,74376.5,-4.91,-11.67,-12.83,0,*54
1515449026.62,63568,8.94,74372.0,-4.91,-11.77,-12.83,0,*5A
1515449027.88,63569,8.94,74372.8,-4.91,-11.77,-12.79,0,*5E
1515449029.17,63570,8.94,74374.3,-4.93,-11.67,-12.79,0,*55
1515449030.43,63571,8.94,74374.8,-4.91,-11.77,-12.79,0,*57
1515449031.69,63572,8.94,74374.5,-4.91,-11.77,-12.75,0,*58
1515449032.95,63573,8.88,74368.3,-4.91,-11.67,-12.79,0,*54
1515449034.21,63574,8.88,74370.3,-4.91,-11.77,-12.79,0,*52
1515449035.47,63575,8.94,74370.5,-4.91,-11.67,-12.79,0,*52
1515449036.73,63576,8.94,74372.5,-4.91,-11.67,-12.79,0,*51
1515449037.99,63577,8.94,74372.5,-4.91,-11.77,-12.75,0,*5D
1515449039.25,63578,8.94,74374.5,-4.91,-11.67,-12.79,0,*5F
1515449040.51,63579,8.94,74374.5,-4.91,-11.77,-12.83,0,*5A
1515449041.76,63580,8.94,74374.5,-4.91,-11.77,-12.83,0,*5C
1515449043.04,63581,8.94,74374.5,-4.93,-11.81,-12.83,0,*56
1515449044.28,63582,8.94,74372.0,-4.91,-11.77,-12.93,0,*5F
1515449045.51,63583,8.94,74372.8,-4.91,-11.81,-12.93,0,*57
1515449046.74,63584,8.94,74372.0,-4.91,-11.81,-12.93,0,*50
1515449048.02,63585,8.94,74374.5,-4.93,-11.81,-12.83,0,*52
1515449049.27,63586,8.94,74372.8,-4.93,-11.81,-12.93,0,*50
1515449050.55,63587,8.94,74374.5,-4.93,-11.81,-12.83,0,*50
1515449051.81,63588,8.94,74372.8,-4.93,-11.81,-12.93,0,*5E
1515449053.04,63589,8.94,74374.0,-4.91,-11.85,-12.93,0,*59
1515449054.28,63590,8.94,74376.8,-4.91,-11.85,-12.93,0,*51
1515449055.56,63591,8.94,74372.3,-4.93,-11.85,-12.83,0,*53
1515449056.82,63592,8.88,74368.5,-4.93,-11.85,-12.93,0,*51
1515449058.05,63593,8.94,74374.5,-4.91,-11.85,-12.93,0,*52
1515449059.28,63594,8.94,74374.3,-4.91,-11.85,-12.93,0,*55
1515449060.55,63595,8.94,74372.8,-4.93,-11.93,-12.93,0,*51
1515449061.81,63596,8.94,74372.5,-4.93,-11.85,-12.93,0,*55
1515449063.09,63597,8.94,74370.0,-4.93,-11.81,-12.83,0,*51
1515449064.37,63598,8.94,74372.8,-4.93,-11.81,-12.83,0,*5E
1515449065.65,63599,8.94,74372.3,-4.93,-11.81,-12.83,0,*5F
1515449066.91,63600,8.94,74374.3,-4.93,-11.85,-12.93,0,*59
1515449068.17,63601,8.94,74370.3,-4.91,-11.97,-12.83,0,*58
1515449069.43,63602,8.94,74374.8,-4.93,-11.93,-12.93,0,*5C
1515449070.71,63603,8.94,74374.0,-4.93,-11.97,-12.83,0,*58
1515449071.97,63604,8.94,74374.3,-4.93,-11.97,-12.93,0,*5E
1515449073.24,63605,8.94,74372.5,-4.93,-11.97,-12.97,0,*5B
1515449074.49,63606,8.94,74374.5,-4.93,-11.97,-13.07,0,*50
1515449075.76,63607,8.94,74374.0,-4.93,-11.93,-12.97,0,*5D
1515449077.02,63608,8.94,74376.0,-4.93,-11.93,-12.93,0,*56
1515449078.28,63609,8.94,74378.0,-4.93,-11.97,-13.07,0,*5F
1515449079.51,63610,8.94,74372.0,-4.95,-12.11,-13.11,0,*5B
1515449080.74,63611,8.94,74376.0,-4.95,-11.97,-12.89,0,*57
1515449081.99,63612,8.94,74374.0,-4.95,-11.97,-13.01,0,*55
1515449083.21,63613,8.94,74374.8,-4.95,-12.03,-13.01,0,*5A
1515449084.43,63614,8.94,74372.3,-4.95,-12.03,-13.01,0,*5D
1515449085.69,63615,8.94,74372.3,-4.93,-11.97,-12.97,0,*5A
1515449086.95,63616,8.94,74372.3,-4.93,-11.97,-12.97,0,*59
1515449088.21,63617,8.88,74372.0,-4.93,-11.97,-12.97,0,*58
1515449089.43,63618,8.94,74372.8,-4.95,-12.03,-13.01,0,*51
1515449090.68,63619,8.94,74374.5,-4.95,-12.15,-13.01,0,*57
1515449091.91,63620,8.94,74372.8,-4.95,-12.11,-13.11,0,*58
1515449093.14,63621,8.94,74376.0,-4.95,-12.15,-13.11,0,*5D
1515449094.37,63622,8.94,74376.3,-4.95,-12.15,-13.11,0,*5E
1515449095.62,63623,8.94,74374.3,-4.95,-12.15,-13.01,0,*5E
1515449096.87,63624,8.94,74374.5,-4.95,-12.11,-13.01,0,*5D
1515449098.1,63625,8.94,74378.5,-4.95,-12.11,-13.11,0,*5D
1515449099.35,63626,8.94,74378.0,-4.95,-12.15,-13.01,0,*5B
1515449100.61,63627,8.94,74376.8,-4.97,-12.11,-13.11,0,*5D
1515449101.87,63628,8.94,74374.5,-4.97,-12.11,-13.11,0,*52
1515449103.1,63629,8.94,74372.5,-4.95,-12.11,-13.11,0,*51
1515449104.36,63630,8.94,74372.3,-4.97,-12.11,-13.11,0,*5B
1515449105.59,63631,8.94,74374.8,-4.95,-12.15,-13.11,0,*5C
1515449106.82,63632,8.94,74372.3,-4.95,-12.15,-13.11,0,*5F
1515449108.07,63633,8.94,74374.0,-4.95,-12.11,-13.01,0,*5B
1515449109.35,63634,8.94,74372.8,-4.97,-12.11,-13.01,0,*5E
1515449110.6,63635,8.88,74372.5,-4.95,-12.11,-13.01,0,*5D
1515449111.88,63636,8.94,74372.0,-4.97,-12.15,-13.01,0,*58
1515449113.13,63637,8.94,74374.5,-4.95,-12.15,-13.01,0,*5B
1515449114.38,63638,8.94,74374.0,-4.95,-12.11,-13.01,0,*50
1515449115.64,63639,8.94,74372.3,-4.97,-12.11,-13.11,0,*52
1515449116.92,63640,8.94,74372.8,-4.97,-12.15,-13.01,0,*59
1515449118.2,63641,8.94,74374.8,-4.97,-12.11,-13.01,0,*5C
1515449119.48,63642,8.94,74374.3,-4.97,-12.15,-13.01,0,*5B
1515449120.71,63643,8.94,74374.5,-4.95,-12.15,-13.15,0,*5D
1515449121.94,63644,8.94,74372.3,-4.97,-12.25,-13.15,0,*5B
1515449123.18,63645,8.94,74374.0,-4.97,-12.25,-13.11,0,*5E
1515449124.44,63646,8.94,74374.3,-4.97,-12.25,-13.01,0,*5C
1515449125.66,63647,8.94,74372.5,-4.95,-12.15,-13.11,0,*5D
1515449126.92,63648,8.94,74374.3,-4.97,-12.15,-13.11,0,*50
1515449128.15,63649,8.94,74374.5,-4.95,-12.25,-13.01,0,*51
1515449129.39,63650,8.94,74374.3,-4.97,-12.25,-13.11,0,*5A
1515449130.62,63651,8.94,74374.3,-4.97,-12.25,-13.11,0,*5B
1515449131.91,63652,8.94,74372.5,-4.97,-12.15,-13.01,0,*5A
1515449133.19,63653,8.94,74372.3,-4.97,-12.15,-13.01,0,*5B
1515449134.47,63654,8.94,74372.8,-4.97,-12.15,-13.01,0,*5C
1515449135.73,63655,8.94,74378.8,-4.97,-12.15,-12.97,0,*53
1515449137.01,63656,8.94,74374.8,-4.97,-12.15,-13.01,0,*5E
1515449138.29,63657,8.94,74376.8,-4.97,-12.15,-13.01,0,*5F
1515449139.57,63658,8.88,74370.3,-4.97,-12.15,-13.01,0,*50
1515449140.83,63659,8.88,74370.0,-4.97,-12.29,-13.01,0,*5E
1515449142.08,63660,8.94,74372.3,-4.97,-12.29,-13.01,0,*54
1515449143.32,63661,8.94,74374.3,-4.97,-12.25,-12.97,0,*57
1515449144.56,63662,8.94,74372.8,-4.97,-12.25,-12.89,0,*5B
1515449145.8,63663,8.94,74374.5,-4.97,-12.25,-12.89,0,*5A
1515449147.04,63664,8.94,74376.0,-4.97,-12.25,-12.89,0,*5D
1515449148.28,63665,8.94,74372.5,-4.97,-12.25,-12.89,0,*5C
1515449149.52,63666,8.94,74372.8,-4.97,-12.25,-12.89,0,*5F
1515449150.76,63667,8.94,74370.8,-4.97,-12.25,-12.97,0,*51
1515449152.0,63668,8.94,74374.5,-4.97,-12.25,-12.89,0,*51
1515449153.21,63669,8.94,74374.8,-5.01,-12.21,-12.93,0,*51
1515449154.47,63670,8.94,74374.8,-4.97,-12.15,-12.89,0,*5B
1515449155.76,63671,8.94,74372.5,-4.97,-12.15,-12.83,0,*50
1515449157.04,63672,8.94,74374.3,-4.97,-12.15,-12.83,0,*53
1515449158.28,63673,8.94,74374.3,-5.01,-12.21,-12.83,0,*5B
1515449159.49,63674,8.94,74374.0,-5.01,-12.21,-12.93,0,*5D
1515449160.78,63675,8.94,74372.3,-4.97,-12.15,-12.83,0,*54
1515449162.01,63676,8.94,74372.0,-5.01,-12.15,-12.89,0,*53
1515449163.22,63677,8.94,74374.5,-5.01,-12.21,-12.89,0,*55
1515449164.43,63678,8.94,74374.5,-5.01,-12.21,-12.89,0,*5A
1515449165.67,63679,8.94,74374.5,-5.01,-12.21,-12.83,0,*51
1515449166.88,63680,8.94,74374.8,-5.01,-12.21,-12.89,0,*5D
1515449168.12,63681,8.88,74372.3,-5.01,-12.21,-12.83,0,*56
1515449169.35,63682,8.94,74372.8,-5.01,-12.21,-12.83,0,*55
1515449170.61,63683,8.94,74374.3,-5.03,-12.21,-12.83,0,*56
1515449171.85,63684,8.94,74374.5,-5.01,-12.21,-12.75,0,*5A
1515449173.09,63685,8.94,74374.0,-5.01,-12.21,-12.75,0,*5B
1515449174.33,63686,8.94,74372.3,-5.01,-12.21,-12.83,0,*51
1515449175.59,63687,8.94,74372.5,-5.01,-12.15,-12.71,0,*5A
1515449176.83,63688,8.94,74372.5,-5.01,-12.21,-12.71,0,*52
1515449178.09,63689,8.94,74376.3,-5.01,-12.15,-12.71,0,*54
1515449179.33,63690,8.94,74372.0,-5.01,-12.21,-12.71,0,*5B
1515449180.59,63691,8.94,74374.3,-5.01,-12.15,-12.71,0,*5D
1515449181.85,63692,8.94,74372.8,-5.01,-12.15,-12.61,0,*5F
1515449183.13,63693,8.94,74374.8,-5.03,-12.15,-12.57,0,*59
1515449184.38,63694,8.94,74376.0,-5.01,-12.15,-12.61,0,*59
1515449185.64,63695,8.94,74374.3,-5.03,-12.21,-12.61,0,*5D
1515449186.89,63696,8.94,74378.5,-5.01,-12.07,-12.57,0,*5D
1515449188.15,63697,8.94,74370.8,-5.01,-12.07,-12.57,0,*5C
1515449189.38,63698,8.88,74368.5,-5.03,-12.03,-12.47,0,*54
1515449190.63,63699,8.94,74374.3,-5.03,-12.07,-12.43,0,*55
1515449191.84,63700,8.94,74372.3,-5.01,-12.03,-12.43,0,*52
1515449193.07,63701,8.94,74372.0,-5.03,-12.03,-12.43,0,*51
1515449194.27,63702,8.94,74372.5,-5.01,-12.03,-12.43,0,*50
1515449195.5,63703,8.94,74372.5,-5.01,-12.07,-12.47,0,*51
1515449196.73,63704,8.94,74374.8,-5.01,-12.15,-12.43,0,*51
1515449197.96,63705,8.94,74370.0,-5.03,-12.03,-12.43,0,*55
1515449199.19,63706,8.94,74378.0,-5.03,-12.03,-12.43,0,*56
1515449200.42,63707,8.94,74374.5,-5.03,-12.03,-12.43,0,*57
1515449201.67,63708,8.94,74374.5,-5.03,-12.07,-12.43,0,*5C
1515449202.9,63709,8.94,74372.3,-5.01,-12.03,-12.35,0,*5A
1515449204.16,63710,8.94,74374.3,-5.03,-12.03,-12.35,0,*50
1515449205.42,63711,8.94,74374.8,-5.01,-11.89,-12.35,0,*52
1515449206.68,63712,8.94,74374.3,-5.03,-11.93,-12.29,0,*55
1515449207.94,63713,8.94,74370.0,-5.01,-11.93,-12.35,0,*5B
1515449209.18,63714,8.94,74372.3,-5.01,-12.03,-12.35,0,*56
1515449210.38,63715,8.94,74372.5,-5.01,-12.03,-12.29,0,*5A
1515449211.59,63716,8.94,74372.0,-5.01,-12.03,-12.29,0,*59
1515449212.85,63717,8.94,74372.5,-5.03,-11.93,-12.29,0,*50
1515449214.1,63718,8.94,74372.0,-5.01,-11.89,-12.15,0,*59
1515449215.36,63719,8.94,74372.0,-5.03,-11.89,-12.21,0,*5D
1515449216.61,63720,8.94,74372.3,-5.01,-11.89,-12.15,0,*52
1515449217.86,63721,8.94,74374.5,-5.01,-11.89,-12.15,0,*53
1515449219.14,63722,8.94,74374.0,-5.03,-11.89,-12.07,0,*51
1515449220.4,63723,8.94,74370.8,-5.03,-11.89,-12.03,0,*54
1515449221.63,63724,8.94,74374.0,-5.01,-11.89,-12.03,0,*51
1515449222.86,63725,8.94,74372.0,-5.01,-11.89,-12.03,0,*50
1515449224.09,63726,8.94,74370.8,-5.01,-11.77,-12.03,0,*52
1515449225.35,63727,8.94,74372.5,-5.01,-11.85,-12.07,0,*5A
1515449226.6,63728,8.94,74372.3,-5.01,-11.85,-11.93,0,*5B
1515449227.86,63729,8.94,74372.8,-5.01,-11.77,-11.93,0,*57
1515449229.12,63730,8.94,74376.5,-5.01,-11.85,-11.93,0,*52
1515449230.37,63731,8.94,74374.8,-5.01,-11.77,-11.85,0,*59
1515449231.65,63732,8.94,74374.8,-5.03,-11.77,-11.85,0,*58
1515449232.9,63733,8.94,74376.3,-5.01,-11.77,-11.77,0,*56
1515449234.15,63734,8.94,74370.3,-5.01,-11.85,-11.85,0,*51
1515449235.4,63735,8.94,74374.8,-5.01,-11.77,-11.73,0,*54
1515449236.66,63736,8.94,74370.8,-5.01,-11.77,-11.73,0,*57
1515449237.92,63737,8.94,74374.8,-5.01,-11.77,-11.63,0,*57
1515449239.19,63738,8.94,74372.5,-5.03,-11.85,-11.73,0,*56
1515449240.44,63739,8.94,74372.0,-5.01,-11.73,-11.73,0,*5C
1515449241.7,63740,8.94,74374.8,-5.01,-11.63,-11.73,0,*53
1515449242.95,63741,8.94,74372.8,-5.01,-11.77,-11.59,0,*5F
1515449244.23,63742,8.94,74370.3,-5.03,-11.77,-11.59,0,*5E
1515449245.48,63743,8.94,74370.0,-5.01,-11.73,-11.59,0,*59
1515449246.73,63744,8.94,74372.5,-5.01,-11.73,-11.59,0,*5E
1515449248.02,63745,8.94,74374.3,-4.97,-11.67,-11.55,0,*58
1515449249.3,63746,8.94,74372.8,-4.97,-11.59,-11.55,0,*56
1515449250.59,63747,8.94,74374.3,-4.97,-11.59,-11.55,0,*57
1515449251.88,63748,8.88,74368.3,-4.97,-11.67,-11.55,0,*55
1515449253.14,63749,8.94,74376.0,-4.97,-11.55,-11.45,0,*54
1515449254.4,63750,8.94,74372.8,-4.97,-11.55,-11.45,0,*5C
1515449255.67,63751,8.94,74376.3,-4.97,-11.59,-11.41,0,*55
1515449256.9,63752,8.94,74376.0,-4.95,-11.55,-11.45,0,*5C
1515449258.18,63753,8.94,74374.8,-4.97,-11.59,-11.29,0,*59
1515449259.46,63754,8.94,74370.5,-4.97,-11.55,-11.33,0,*59
1515449260.75,63755,8.94,74376.3,-4.97,-11.55,-11.29,0,*53
1515449262.0,63756,8.94,74376.8,-4.95,-11.55,-11.33,0,*59
1515449263.28,63757,8.94,74374.3,-4.97,-11.55,-11.33,0,*5A
1515449264.56,63758,8.94,74374.5,-4.97,-11.55,-11.33,0,*55
1515449265.85,63759,8.94,74374.8,-4.97,-11.55,-11.29,0,*5F
1515449267.1,63760,8.88,74368.5,-4.95,-11.55,-11.33,0,*5C
1515449268.34,63761,8.94,74376.0,-4.97,-11.45,-11.19,0,*56
1515449269.6,63762,8.94,74372.5,-4.97,-11.59,-11.15,0,*54
1515449270.83,63763,8.94,74374.5,-4.95,-11.45,-11.29,0,*55
1515449272.07,63764,8.94,74372.3,-4.97,-11.45,-11.15,0,*5F
1515449273.32,63765,8.94,74372.5,-4.97,-11.45,-11.01,0,*5B
1515449274.56,63766,8.94,74376.8,-4.95,-11.45,-11.07,0,*5C
1515449275.82,63767,8.94,74372.3,-4.97,-11.45,-11.07,0,*5F
1515449277.04,63768,8.94,74372.0,-4.95,-11.45,-11.01,0,*54
1515449278.28,63769,8.94,74370.0,-4.97,-11.45,-11.01,0,*57
1515449279.55,63770,8.94,74374.5,-4.97,-11.45,-11.07,0,*59
1515449280.79,63771,8.94,74370.5,-4.95,-11.45,-11.07,0,*5A
1515449282.03,63772,8.94,74372.5,-4.95,-11.45,-11.07,0,*59
1515449283.24,63773,8.94,74374.3,-4.95,-11.45,-11.01,0,*5E
1515449284.48,63774,8.94,74374.0,-4.95,-11.45,-11.07,0,*5F
1515449285.72,63775,8.88,74368.8,-4.97,-11.45,-10.97,0,*54
1515449286.99,63776,8.94,74374.3,-4.97,-11.55,-10.97,0,*56
1515449288.2,63777,8.94,74374.0,-4.95,-11.45,-10.89,0,*5B
1515449289.44,63778,8.94,74372.3,-4.97,-11.45,-10.97,0,*59
1515449290.71,63779,8.94,74374.5,-4.97,-11.55,-10.97,0,*59
1515449291.92,63780,8.88,74368.5,-4.95,-11.45,-10.89,0,*53
1515449293.14,63781,8.94,74374.5,-4.95,-11.45,-10.97,0,*5D
1515449294.38,63782,8.94,74374.0,-4.97,-11.45,-10.89,0,*53
1515449295.58,63783,8.94,74372.8,-4.95,-11.41,-10.85,0,*58
1515449296.81,63784,8.94,74370.5,-4.97,-11.41,-10.85,0,*5D
1515449298.08,63785,8.94,74374.0,-4.97,-11.41,-10.75,0,*53
1515449299.33,63786,8.94,74372.0,-4.95,-11.33,-10.71,0,*53
1515449300.62,63787,8.94,74370.0,-4.97,-11.33,-10.75,0,*54
1515449301.88,63788,8.94,74372.8,-4.97,-11.19,-10.63,0,*54
1515449303.11,63789,8.94,74372.8,-4.95,-11.15,-10.63,0,*5B
1515449304.38,63790,8.94,74374.3,-4.97,-11.15,-10.63,0,*51
1515449305.61,63791,8.94,74370.8,-4.95,-11.15,-10.63,0,*52
1515449306.84,63792,8.94,74374.8,-4.95,-11.19,-10.63,0,*5D